Location: Songkhla
(7.2000°N, 100.6000°E)
Time: 07:04:18
(UTC+07:00)

BREEZE-M R/B - Pass Details

Date: 16 April 2026
Orbit: 305 x 3848 km, 49.7° (Epoch: 17 May)

Event Time Altitude Azimuth Distance (km) Brightness Sun altitude
Rises 20:04:07 0° 326° (NW) 6,305 8.9 -24.6°
Reaches altitude 10° 20:09:15 10° 330° (NNW) 4,687 8.1 -25.8°
Maximum altitude 20:20:20 56° 45° (NE) 1,401 4.5 -28.5°
Enters shadow 20:20:43 56° 58° (ENE) 1,373 4.4 -28.6°
